Terminal Aerodrome Forecast
Issued by NWS Omaha/Valley, NE

Home | Current Version | Previous Version | Graphics & Text | Print | Product List | Glossary On
Versions: 1 2 3 4 5 6 7 8 9 10 11 12 13 14 15 16 17 18 19 20 21 22 23 24 25 26 27 28 29 30 31 32 33 34 35 36
000
FTUS43 KOAX 231611 AAA
TAFOFK
TAF AMD
KOFK 231611Z 2316/2412 16012G20KT P6SM BKN060
     FM232100 17014G21KT P6SM BKN050
     FM240100 16012KT P6SM OVC040 PROB30 2406/2412 4SM -SHRA SCT015
      OVC025=

USA.gov is the U.S. government's official web portal to all federal, state and local government web resources and services.